Location: *
(51.1248°S, 108.4023°W)
Time: 03:33:32
(UTC+00:00)

Cosmos 1125 Rocket - Pass Details

Date: 15 June 2021
Orbit: 757 x 780 km, 74.0° (Epoch: 31 July)

Event Time Altitude Azimuth Distance (km) Brightness Sun altitude
Rises 12:56:57 0° 341° (NNW) 3,267 6.7 -20.6°
Reaches altitude 10° 12:59:19 10° 341° (NNW) 2,347 5.9 -20.2°
Maximum altitude 13:04:40 82° 67° (ENE) 805 3.6 -19.4°
Drops below altitude 10° 13:10:05 10° 154° (SSE) 2,370 6.2 -18.6°
Sets 13:12:29 0° 154° (SSE) 3,302 6.9 -18.2°
